| time (UTC) | temp F | wind direction | speed knots | gust knots | rain 1hr in | rain 24hr in | rain mn in | humidity % | barometer mb |
| 20260906133006 | 68 | 120 | 0.0 | 0.9 | 0.00 | 0.00 | 0.00 | 88 | 1020.8 |
| 20260906131511 | 67 | 106 | 0.0 | 0.0 | 0.00 | 0.00 | 0.00 | 90 | 1020.8 |
| 20260906130020 | 66 | 106 | 0.0 | 0.0 | 0.00 | 0.00 | 0.00 | 92 | 1020.6 |
| 20260906124537 | 65 | 115 | 0.0 | 0.0 | 0.00 | 0.00 | 0.00 | 93 | 1020.3 |
| 20260906123003 | 64 | 115 | 0.0 | 0.0 | 0.00 | 0.00 | 0.00 | 93 | 1020.1 |
| 20260906121508 | 63 | 115 | 0.0 | 0.0 | 0.00 | 0.00 | 0.00 | 92 | 1019.9 |
| 20260906120014 | 63 | 115 | 0.0 | 0.0 | 0.00 | 0.00 | 0.00 | 91 | 1019.6 |
| 20260906114523 | 63 | 115 | 0.0 | 0.0 | 0.00 | 0.00 | 0.00 | 91 | 1019.8 |
| 20260906113028 | 63 | 115 | 0.0 | 0.0 | 0.00 | 0.00 | 0.00 | 91 | 1019.4 |
| 20260906111519 | 63 | 115 | 0.0 | 0.0 | 0.00 | 0.00 | 0.00 | 90 | 1019.3 |
| 20260906110010 | 63 | 115 | 0.0 | 0.0 | 0.00 | 0.00 | 0.00 | 90 | 1019.2 |
| 20260906104516 | 63 | 115 | 0.0 | 0.0 | 0.00 | 0.00 | 0.00 | 90 | 1019.3 |
| 20260906103025 | 63 | 115 | 0.0 | 0.0 | 0.00 | 0.00 | 0.00 | 90 | 1019.3 |
| 20260906101529 | 64 | 115 | 0.0 | 0.9 | 0.00 | 0.00 | 0.00 | 90 | 1019.2 |
| 20260906100010 | 64 | 115 | 0.0 | 0.0 | 0.00 | 0.00 | 0.00 | 90 | 1019.1 |
| 20260906094511 | 64 | 115 | 0.0 | 0.0 | 0.00 | 0.00 | 0.00 | 90 | 1018.9 |
| 20260906093022 | 64 | 115 | 0.0 | 0.0 | 0.00 | 0.00 | 0.00 | 90 | 1019.0 |
| 20260906091532 | 64 | 115 | 0.0 | 0.0 | 0.00 | 0.00 | 0.00 | 89 | 1018.9 |
| 20260906090030 | 65 | 115 | 0.0 | 0.0 | 0.00 | 0.00 | 0.00 | 89 | 1018.8 |
| 20260906084529 | 65 | 115 | 0.0 | 0.0 | 0.00 | 0.00 | 0.00 | 88 | 1018.7 |
| 20260906083015 | 65 | 115 | 0.0 | 0.0 | 0.00 | 0.00 | 0.00 | 88 | 1018.9 |
| 20260906081520 | 66 | 115 | 0.0 | 0.0 | 0.00 | 0.00 | 0.00 | 87 | 1018.8 |
| 20260906080031 | 66 | 115 | 0.0 | 0.0 | 0.00 | 0.00 | 0.00 | 86 | 1018.9 |
| 20260906074530 | 67 | 115 | 0.0 | 0.0 | 0.00 | 0.00 | 0.00 | 85 | 1019.0 |
| 20260906073036 | 68 | 115 | 0.0 | 0.0 | 0.00 | 0.00 | 0.00 | 84 | 1019.0 |
| 20260906071517 | 69 | 115 | 0.0 | 0.0 | 0.00 | 0.00 | 0.00 | 83 | 1019.1 |
| 20260906070003 | 68 | 108 | 0.0 | 0.9 | 0.00 | 0.00 | 0.00 | 84 | 1019.2 |
| 20260906064503 | 68 | 112 | 0.0 | 0.0 | 0.00 | 0.00 | 0.00 | 84 | 1019.3 |
| 20260906063007 | 68 | 112 | 0.0 | 0.9 | 0.00 | 0.00 | 0.00 | 84 | 1019.3 |
| 20260906061512 | 68 | 114 | 0.0 | 0.9 | 0.00 | 0.00 | 0.00 | 84 | 1019.4 |
| 20260906060013 | 68 | 113 | 0.0 | 0.9 | 0.00 | 0.00 | 0.00 | 85 | 1019.4 |
| 20260906054502 | 68 | 108 | 0.0 | 0.9 | 0.00 | 0.00 | 0.00 | 85 | 1019.1 |
| 20260906053008 | 67 | 118 | 0.0 | 0.9 | 0.00 | 0.00 | 0.00 | 85 | 1019.0 |
| 20260906051509 | 67 | 124 | 0.0 | 0.0 | 0.00 | 0.00 | 0.00 | 85 | 1019.1 |
| 20260906050018 | 67 | 124 | 0.0 | 0.0 | 0.00 | 0.00 | 0.00 | 85 | 1018.8 |
| 20260906044516 | 68 | 124 | 0.0 | 0.0 | 0.00 | 0.00 | 0.00 | 84 | 1018.6 |
| 20260906043006 | 68 | 124 | 0.0 | 0.0 | 0.00 | 0.00 | 0.00 | 84 | 1018.4 |
| 20260906041508 | 69 | 124 | 0.0 | 0.0 | 0.00 | 0.00 | 0.00 | 83 | 1018.3 |
| 20260906040013 | 69 | 124 | 0.0 | 0.0 | 0.00 | 0.00 | 0.00 | 83 | 1018.1 |
| 20260906034520 | 69 | 124 | 0.0 | 0.0 | 0.00 | 0.00 | 0.00 | 82 | 1018.0 |
| 20260906033024 | 70 | 124 | 0.0 | 0.0 | 0.00 | 0.00 | 0.00 | 82 | 1018.0 |
| 20260906031504 | 70 | 124 | 0.0 | 0.9 | 0.00 | 0.00 | 0.00 | 82 | 1017.9 |
| 20260906030017 | 70 | 67 | 0.0 | 0.9 | 0.00 | 0.00 | 0.00 | 81 | 1017.8 |
| 20260906024517 | 70 | 115 | 0.0 | 0.9 | 0.00 | 0.00 | 0.00 | 82 | 1017.5 |
| 20260906023027 | 71 | 131 | 0.0 | 1.7 | 0.00 | 0.00 | 0.00 | 81 | 1017.5 |
| 20260906021526 | 71 | 108 | 0.0 | 1.7 | 0.00 | 0.00 | 0.00 | 81 | 1017.1 |
| 20260906020027 | 71 | 117 | 0.0 | 0.9 | 0.00 | 0.00 | 0.00 | 81 | 1017.1 |
| 20260906014512 | 72 | 123 | 0.0 | 0.0 | 0.00 | 0.00 | 0.00 | 79 | 1017.1 |
| 20260906013029 | 73 | 113 | 0.0 | 0.0 | 0.00 | 0.00 | 0.00 | 78 | 1017.1 |
| 20260906011523 | 74 | 124 | 0.0 | 0.0 | 0.00 | 0.00 | 0.00 | 78 | 1017.1 |
| 20260906010027 | 74 | 360 | 0.0 | 0.0 | 0.00 | 0.00 | 0.00 | 77 | 1017.2 |
| 20260906004525 | 75 | 116 | 0.0 | 0.0 | 0.00 | 0.00 | 0.00 | 76 | 1017.1 |
| 20260906003014 | 76 | 115 | 0.0 | 1.7 | 0.00 | 0.00 | 0.00 | 75 | 1016.8 |
| 20260906001523 | 77 | 99 | 0.0 | 0.9 | 0.00 | 0.00 | 0.00 | 74 | 1016.8 |
| 20260906000046 | 78 | 116 | 0.0 | 1.7 | 0.00 | 0.00 | 0.00 | 73 | 1016.8 |
| 20260905234508 | 79 | 136 | 0.0 | 0.9 | 0.00 | 0.00 | 0.00 | 71 | 1016.6 |
| 20260905233009 | 80 | 71 | 0.0 | 0.9 | 0.00 | 0.00 | 0.00 | 71 | 1016.6 |
| 20260905231518 | 80 | 113 | 0.0 | 0.9 | 0.00 | 0.00 | 0.00 | 69 | 1016.6 |
| 20260905230023 | 81 | 5 | 0.0 | 1.7 | 0.00 | 0.00 | 0.00 | 68 | 1016.4 |
| 20260905224527 | 82 | 90 | 0.0 | 0.9 | 0.00 | 0.00 | 0.00 | 66 | 1016.1 |
| 20260905223009 | 84 | 115 | 0.0 | 1.7 | 0.00 | 0.00 | 0.00 | 64 | 1016.3 |
| 20260905221513 | 85 | 348 | 0.0 | 0.9 | 0.00 | 0.00 | 0.00 | 62 | 1016.4 |
| 20260905220016 | 87 | 259 | 0.0 | 1.7 | 0.00 | 0.00 | 0.00 | 61 | 1016.2 |
| 20260905214525 | 85 | 127 | 0.0 | 1.7 | 0.00 | 0.00 | 0.00 | 62 | 1016.2 |
| 20260905213031 | 84 | 117 | 0.0 | 2.6 | 0.00 | 0.00 | 0.00 | 65 | 1016.1 |
| 20260905211510 | 83 | 116 | 0.0 | 3.5 | 0.00 | 0.00 | 0.00 | 67 | 1016.1 |
| 20260905210016 | 83 | 131 | 0.0 | 0.9 | 0.00 | 0.00 | 0.00 | 69 | 1016.4 |
| 20260905204531 | 82 | 85 | 0.0 | 1.7 | 0.00 | 0.00 | 0.00 | 70 | 1016.6 |
| 20260905203028 | 82 | 108 | 0.0 | 0.9 | 0.00 | 0.00 | 0.00 | 69 | 1016.6 |
| 20260905201530 | 80 | 115 | 0.0 | 1.7 | 0.00 | 0.00 | 0.00 | 73 | 1016.8 |
| 20260905200025 | 79 | 116 | 0.0 | 1.7 | 0.00 | 0.00 | 0.00 | 73 | 1016.8 |
| 20260905194519 | 79 | 119 | 0.0 | 0.9 | 0.00 | 0.00 | 0.00 | 74 | 1016.9 |
| 20260905193024 | 80 | 109 | 0.0 | 0.9 | 0.00 | 0.00 | 0.00 | 73 | 1016.8 |
| 20260905191530 | 80 | 108 | 0.0 | 0.9 | 0.00 | 0.00 | 0.00 | 73 | 1016.8 |
| 20260905190033 | 80 | 71 | 0.0 | 0.9 | 0.00 | 0.00 | 0.00 | 74 | 1016.8 |
| 20260905184535 | 80 | 349 | 0.0 | 0.9 | 0.00 | 0.00 | 0.00 | 74 | 1017.0 |
| 20260905183036 | 80 | 19 | 0.0 | 0.9 | 0.00 | 0.00 | 0.00 | 74 | 1017.1 |
| 20260905181529 | 80 | 6 | 0.0 | 0.9 | 0.00 | 0.00 | 0.00 | 74 | 1017.1 |
| 20260905180033 | 80 | 70 | 0.0 | 1.7 | 0.00 | 0.00 | 0.00 | 73 | 1017.1 |
| 20260905174535 | 81 | 107 | 0.0 | 1.7 | 0.00 | 0.00 | 0.00 | 74 | 1017.1 |
| 20260905173017 | 82 | 104 | 0.0 | 0.9 | 0.00 | 0.00 | 0.00 | 73 | 1017.0 |
| 20260905171524 | 82 | 118 | 0.0 | 1.7 | 0.00 | 0.00 | 0.00 | 73 | 1017.0 |
| 20260905170026 | 81 | 84 | 0.0 | 1.7 | 0.00 | 0.00 | 0.00 | 74 | 1017.1 |
| 20260905164533 | 81 | 101 | 0.0 | 1.7 | 0.00 | 0.00 | 0.00 | 73 | 1017.1 |
| 20260905163031 | 82 | 113 | 0.0 | 0.9 | 0.00 | 0.00 | 0.00 | 73 | 1017.1 |
| 20260905161534 | 81 | 110 | 0.0 | 1.7 | 0.00 | 0.00 | 0.00 | 74 | 1017.0 |
| 20260905160029 | 80 | 119 | 0.0 | 1.7 | 0.00 | 0.00 | 0.00 | 75 | 1017.1 |
| 20260905154540 | 81 | 326 | 0.0 | 0.9 | 0.00 | 0.00 | 0.00 | 74 | 1017.0 |
| 20260905153031 | 79 | 117 | 0.0 | 1.7 | 0.00 | 0.00 | 0.00 | 76 | 1016.9 |
| 20260905151537 | 77 | 118 | 0.0 | 0.9 | 0.00 | 0.00 | 0.00 | 79 | 1016.7 |
| 20260905150004 | 76 | 117 | 0.0 | 1.7 | 0.00 | 0.00 | 0.00 | 80 | 1016.3 |
| 20260905144505 | 76 | 115 | 0.0 | 1.7 | 0.00 | 0.00 | 0.00 | 80 | 1016.1 |
| 20260905143008 | 76 | 117 | 0.0 | 1.7 | 0.00 | 0.00 | 0.00 | 82 | 1016.1 |
| 20260905141511 | 75 | 18 | 0.0 | 0.9 | 0.00 | 0.00 | 0.00 | 82 | 1015.9 |
| 20260905140017 | 76 | 100 | 0.0 | 1.7 | 0.00 | 0.00 | 0.00 | 81 | 1016.1 |
| 20260905134504 | 76 | 109 | 0.0 | 0.9 | 0.00 | 0.00 | 0.00 | 81 | 1016.1 |